Find Starlink 38371

NORAD ID: 100505 Int'l Des: 2026-197 Owner: SPXS Country: US Constellation: starlink operational

Aktuelle Ansicht

3D-Globus wird geladen...

About Starlink 38371

Starlink 38371 (NORAD 100505) is a starlink constellation satellite launched Aug 25, 2026 by SPXS of US. with a mass of 575.00 kg.

Nächste Überflüge

Passes for default location (London). Set your location on the main map for personalized predictions.

Höhenverlauf

Loading altitude history...

Zweizeiliger Elementsatz

1 A0505U 26197D 26249.51679236 .00239131 00000-0 11299-2 0 9990
2 A0505 69.9965 161.4284 0003148 258.8419 101.2430 15.82226651 1780
Epoch: 6. Sept. 2026 • Age: 9 hours

Aktueller Status

Höhe 340.8 km
Apogäum / Perigäum N/A
Geschwindigkeit 7.70 km/s
Subsatellitenpunkt -50.66°S, 65.96°E
Startdatum 25. Aug. 2026
Alter 12 days
Typ internet

Technische Details

Klassifizierung Payload
Masse 575.00 kg
Trockenmasse 530.00 kg
Gesamtmasse 575.00 kg
Länge 0.30 m
Durchmesser 4.10 m
Spannweite 29.00 m
Form Box + pan
Hersteller SPXS
Bus-Typ Starlink V2MO
Phasenstatus In Orbit
Besitzer/Staat SPXS/US

Most Searched